TimeEDT,TemperatureF,Dew PointF,Humidity,Sea Level PressureIn,VisibilityMPH,Wind Direction,Wind SpeedMPH,Gust SpeedMPH,PrecipitationIn,Events,Conditions,WindDirDegrees,DateUTC
12:53 AM,55.9,39.9,55,30.35,10.0,SE,3.5,-,N/A,,Clear,140,2013-04-27 04:53:00
1:53 AM,55.9,39.9,55,30.35,10.0,SSE,3.5,-,N/A,,Clear,160,2013-04-27 05:53:00
2:53 AM,54.0,45.0,72,30.35,10.0,Calm,Calm,-,N/A,,Clear,0,2013-04-27 06:53:00
3:53 AM,54.0,44.1,69,30.34,10.0,NNE,3.5,-,N/A,,Scattered Clouds,30,2013-04-27 07:53:00
4:53 AM,52.0,45.0,77,30.33,10.0,Calm,Calm,-,N/A,,Clear,0,2013-04-27 08:53:00
5:53 AM,53.1,46.0,77,30.33,10.0,NE,4.6,-,N/A,,Overcast,50,2013-04-27 09:53:00
6:53 AM,52.0,48.0,86,30.34,10.0,NNE,4.6,-,N/A,,Overcast,30,2013-04-27 10:53:00
7:53 AM,55.0,46.9,74,30.36,10.0,NNE,3.5,-,N/A,,Mostly Cloudy,20,2013-04-27 11:53:00
8:53 AM,57.0,48.9,74,30.37,10.0,Calm,Calm,-,N/A,,Overcast,0,2013-04-27 12:53:00
9:53 AM,61.0,51.1,70,30.35,10.0,Variable,3.5,-,N/A,,Mostly Cloudy,0,2013-04-27 13:53:00
10:53 AM,66.0,48.0,52,30.36,10.0,ESE,3.5,-,N/A,,Overcast,110,2013-04-27 14:53:00
11:53 AM,69.1,43.0,39,30.34,10.0,SE,5.8,-,N/A,,Clear,130,2013-04-27 15:53:00
12:53 PM,71.1,42.1,35,30.32,10.0,SSE,3.5,-,N/A,,Clear,150,2013-04-27 16:53:00
1:53 PM,73.0,41.0,31,30.30,10.0,SSW,6.9,-,N/A,,Partly Cloudy,200,2013-04-27 17:53:00
2:53 PM,73.9,39.0,28,30.28,10.0,Variable,3.5,-,N/A,,Mostly Cloudy,0,2013-04-27 18:53:00
3:53 PM,73.9,39.9,29,30.27,10.0,SE,6.9,-,N/A,,Overcast,140,2013-04-27 19:53:00
4:53 PM,73.0,39.9,30,30.26,10.0,Calm,Calm,-,N/A,,Overcast,0,2013-04-27 20:53:00
5:53 PM,73.0,41.0,31,30.26,10.0,Calm,Calm,-,N/A,,Overcast,0,2013-04-27 21:53:00
6:53 PM,71.1,44.1,38,30.26,10.0,West,6.9,-,N/A,,Overcast,260,2013-04-27 22:53:00
7:53 PM,69.1,44.1,40,30.25,10.0,WSW,3.5,-,N/A,,Overcast,250,2013-04-27 23:53:00
8:53 PM,64.9,48.0,54,30.27,10.0,SW,5.8,-,N/A,,Overcast,220,2013-04-28 00:53:00
9:53 PM,64.0,48.0,56,30.29,10.0,WSW,5.8,-,N/A,,Overcast,250,2013-04-28 01:53:00
10:53 PM,62.1,48.9,62,30.28,10.0,Calm,Calm,-,N/A,,Mostly Cloudy,0,2013-04-28 02:53:00
11:53 PM,60.1,48.9,67,30.27,10.0,Calm,Calm,-,N/A,,Overcast,0,2013-04-28 03:53:00